Rbgn^[z[y[W
メイン
   新天体発見情報
     Comet C/2018 X3 (PANSTARRS)
投稿するにはまず登録を

フラット表示 前のトピック | 次のトピック
投稿者 スレッド
佐藤裕久
投稿日時: 2018-12-22 4:14
モデレータ
登録日: 2005-6-12
居住地: 日本
投稿: 1935
オンライン
Comet C/2018 X3 (PANSTARRS)

R. Weryk (ハワイ大学天文学研究所)の通報によると、12月12.5日UT、Haleakala にある1.8-m Pan-
STARRS2 Ritchey-Chretien望遠鏡で得た画像から拡散した彗星を発見した。
同時に、10月4.6日と11月2.6日のPan-STARRS2による発見前の観測があった。12月14.4日、Canada-
France-Hawaii Telescope (R. Wainscoat, C. WipperとA. Petricによる)で得た3枚の60秒gri-バンド
フォローアップ露出では、非対称の核状集光が東に向かって伸びているFWHM(半値全幅)はシーイング
1".9で約2".3で拡張している。南南西に「軽い」低表面輝度があり、少なくとも15"伸びている非常に
かすかな尾があるかもしれない。
小惑星センターのNEOCPとPCCP webpageに公表後、W. Ryan (Magdalena Ridge天文台, 2.4-m 反射望遠
鏡, Socorro近郊, ニューメキシコ州, 12月14.5日UT, 個別のぼやっとした外観を見つけたらCCD観測
者によって彗星状と観測された。

発見位置は次のとおり、

     2018 UT             R.A. (2000) Decl.       Mag.
     Oct.  4.59043    5 23 38.37   + 2 15 47.6   21.6
           4.60156    5 23 38.56   + 2 15 51.9
     Nov.  2.58427    5 21 16.85   + 6 20 57.4   19.7
           2.59705    5 21 16.45   + 6 21 05.6
           2.60989    5 21 16.05   + 6 21 14.2   19.6
     Dec. 12.46173    4 44 38.24   +16 14 33.1   20.5
          12.47442    4 44 37.34   +16 14 46.3   20.3
          12.48701    4 44 36.46   +16 14 59.4   20.4

楕円軌道要素と位置推算表は次のとおり、

Orbital elements:
    C/2018 X3 (PANSTARRS)
Epoch 2018 Dec. 28.0 TT = JDT 2458480.5
T 2018 Dec. 30.79927 TT                                 MPCW
q   2.6988744            (2000.0)            P               Q
n   0.02252347     Peri.  359.83433     +0.19415876     -0.71284945
a  12.4178344      Node    78.92483     +0.90081046     -0.14242619
e   0.7826614      Incl.   43.36898     +0.38838497     +0.68670258
P  43.76
From 28 observations 2018 Oct. 4-Dec. 16, mean residual 0".3.

    C/2018 X3 (PANSTARRS)
Epoch 2062 Sept. 8.0 TT = JDT 2474440.5
T 2062 Sept. 7.60238 TT                                 MPCW
q   2.7037572            (2000.0)            P               Q
n   0.02249264     Peri.  359.84347     +0.19402125     -0.71297510
a  12.4291772      Node    78.92623     +0.90079196     -0.14253038
e   0.7824669      Incl.   43.36123     +0.38849659     +0.68655051
P  43.82
From 28 observations 2018 Oct. 4-Dec. 16, mean residual 0".3.

    C/2018 X3 (PANSTARRS)
Epoch 2019 Apr. 27.0 TT = JDT 2458600.5
T 2018 Dec. 30.77347 TT                                 MPCW
q   2.6988276            (2000.0)            P               Q
n   0.02253755     Peri.  359.82678     +0.19424978     -0.71281736
a  12.4126603      Node    78.92499     +0.90082975     -0.14231364
e   0.7825746      Incl.   43.36957     +0.38829472     +0.68675923
P  43.73
From 28 observations 2018 Oct. 4-Dec. 16, mean residual 0".3.

Ephemeris:
    C/2018 X3 (PANSTARRS)
Date    TT    R. A. (2000) Decl.     Delta      r     Elong.  Phase   m1
2018 11 17    05 11 36.1 +09 23 01   1.8101  2.7291   153.2     9.4  20.1
...
2018 12 02    04 56 35.6 +13 15 43   1.7366  2.7120   169.5     3.8  20.0
...
2018 12 10    04 47 28.4 +15 31 51   1.7279  2.7057   171.5     3.1  20.0
...
2018 12 16    04 40 36.6 +17 16 09   1.7358  2.7024   166.4     4.9  20.0
2018 12 17    04 39 29.1 +17 33 33   1.7383  2.7019   165.4     5.3  20.0
2018 12 18    04 38 22.3 +17 50 57   1.7412  2.7015   164.3     5.7  20.0
...
2018 12 24    04 31 56.7 +19 34 36   1.7652  2.6996   157.3     8.1  20.0
...
2019 01 01    04 24 21.5 +21 48 59   1.8149  2.6989   147.9    11.2  20.1
...
2019 01 16    04 14 34.3 +25 42 08   1.9547  2.7030   130.9    16.0  20.3

(CBET 4584、MPEC 2018-Y24)

フラット表示 前のトピック | 次のトピック

題名 投稿者 日時
 » Comet C/2018 X3 (PANSTARRS) 佐藤裕久 2018-12-22 4:14

投稿するにはまず登録を
 
© 1999 Tsutomu Seki.